SCOUT A DEB, 2778

Orbit data source: Space-Track

SCOUT A DEB, 2778 is space debris in LEO originally from a launch on Fri, 14 Apr 1967 UTC launched from the Air Force Western Test Range (AFWTR). Debris objects in space refer to the collection of defunct objects orbiting the Earth. Examples of debris include non-operational satellites, rocket bodies, and fragments generated from explosions, collisions, or faulty payload assembly.

Loading next visibility...
Identifier
2778, 1967-034D
Orbit
LEO
Country
Flag of USUS
Related business
Manufacturer
Unknown
Mission
Spacecraft
Bus & Motor
Unknown
Mass
Unknown
Launch date (UTC)
1967-04-14 (59 years ago)
Launch vehicle
Unknown
Launch site
Air Force Western Test Range (AFWTR)
Object type
Payload
Rocket body
Debris
Shape & HBR
Unknown shape, 0.1 m
Radar Cross Section
Medium (>0.1 m² and <1 m²)

Expand to show TLE details & history
Last TLE update: 23 hours ago

TLE from 23 hours ago
0 SCOUT A DEB
1 02778U 67034D   26174.40143314  .00000090  00000-0  15456-3 0  9997
2 02778  89.8521  37.4449 0122699 338.6160  77.1590 13.35279796873982
Epoch: 2026-06-23T09:38Z
TLE epoch observation values (Epoch: 2026-06-23T09:38:03.823Z)
Latitude
57.24228°
Longitude
-18.41586°
Altitude
1,117.201 km
Speed
7.309 km/s
True Right ascension
02h 30m 41s
True Declination
57° 05' 35"
Sunlit
Object was in daylight at epoch
Visualization orbit readout
Latitude
Unknown
Longitude
Unknown
Altitude
Unknown
Speed
Unknown
Apparent Right ascension
Unknown
Apparent Declination
Unknown
Sunlit
N/A
Visualization observer readout
Local Sidereal Time
19:45:51
Azimuth
Unknown
Elevation
Unknown
Doppler factor
Unknown
Orbital elements
Apogee altitude
1,216.035 km
Perigee altitude
1,031.935 km
Semi-major axis
7,502.122 km
Eccentricity
0.01227
Inclination
89.8521°
RAAN
37.4449°
Arg. of periapsis
338.616°
True anomaly
78.53442°
Mean anomaly
77.159°
Eccentric anomaly
77.84626°
Mean motion
3.34016 °/min
Orbital period
107.78 mins
BSTAR
0.00015456
Loading maneuver chart data...
Computing Atmospheric mass density...
Loading historical data...
Loading historical data...
Loading historical data...
Loading historical data...
Loading historical data...
Loading historical data...
Loading historical data...

Documentation

Showing up to 5 results
|